MED324 LTBJ-LGAV

Flight info

Callsign MED324
Flight time 0h 40m
Altitude 21000
Route VEXOL UG802 SOSIR UN604 OGSIL
Aircraft A321/M-SDE3FGHIRWY/LB1

Departure

Time 2026-05-04 14:10
Airport Adnan Menderes International Airport (LTBJ)

Arrival

Time 2026-05-04 14:50
Airport Athens Eleftherios Venizelos International Airport (LGAV)
Time Latitude Longitude Altitude Speed Heading
2026-05-04 14:08 38.28918 27.15500 421 ft 0 kts 358°
2026-05-04 14:09 38.29171 27.15486 421 ft 80 kts 358°
2026-05-04 14:10 38.31623 27.14803 1177 ft 269 kts 334°
2026-05-04 14:10 38.33117 27.13255 1724 ft 267 kts 311°
2026-05-04 14:10 38.33968 27.11168 2286 ft 273 kts 288°
2026-05-04 14:10 38.34132 27.08695 2873 ft 285 kts 267°
2026-05-04 14:11 38.33831 27.06339 3412 ft 291 kts 258°
2026-05-04 14:11 38.32749 27.01157 4556 ft 296 kts 257°
2026-05-04 14:11 38.32296 26.98578 5115 ft 297 kts 260°
2026-05-04 14:12 38.31960 26.95958 5676 ft 296 kts 263°
2026-05-04 14:12 38.31743 26.93367 6228 ft 295 kts 266°
2026-05-04 14:12 38.31586 26.88979 7159 ft 293 kts 269°
2026-05-04 14:13 38.31581 26.86376 7711 ft 293 kts 270°
2026-05-04 14:13 38.31623 26.83748 8268 ft 294 kts 271°
2026-05-04 14:13 38.31699 26.81118 8824 ft 295 kts 272°
2026-05-04 14:13 38.31799 26.78504 9375 ft 297 kts 272°
2026-05-04 14:14 38.31917 26.75863 9928 ft 299 kts 273°
2026-05-04 14:14 38.32185 26.70533 11033 ft 303 kts 274°
2026-05-04 14:14 38.32329 26.67842 11585 ft 306 kts 274°
2026-05-04 14:15 38.32628 26.62384 12692 ft 310 kts 274°
2026-05-04 14:15 38.32933 26.56868 13795 ft 315 kts 274°
2026-05-04 14:16 38.33243 26.51246 14900 ft 320 kts 274°
2026-05-04 14:16 38.33400 26.48384 15456 ft 323 kts 274°
2026-05-04 14:17 38.33713 26.42630 16560 ft 328 kts 274°
2026-05-04 14:17 38.33873 26.39685 17118 ft 331 kts 274°
2026-05-04 14:17 38.34190 26.33772 18225 ft 336 kts 274°
2026-05-04 14:18 38.34349 26.30793 18776 ft 339 kts 274°
2026-05-04 14:18 38.34668 26.24702 19828 ft 347 kts 273°
2026-05-04 14:19 38.35402 26.18309 20006 ft 356 kts 273°
2026-05-04 14:19 38.35393 26.15072 20007 ft 356 kts 268°
2026-05-04 14:19 38.35245 26.11900 20003 ft 356 kts 266°
2026-05-04 14:19 38.35013 26.08662 20001 ft 356 kts 264°
2026-05-04 14:20 38.34743 26.05495 20000 ft 355 kts 264°
2026-05-04 14:20 38.34432 26.02328 20000 ft 355 kts 263°
2026-05-04 14:20 38.34083 25.99256 20000 ft 355 kts 262°
2026-05-04 14:21 38.33323 25.93048 20000 ft 355 kts 261°
2026-05-04 14:21 38.32933 25.89949 20000 ft 355 kts 261°
2026-05-04 14:21 38.32536 25.86813 20000 ft 355 kts 261°
2026-05-04 14:21 38.32141 25.83705 20000 ft 355 kts 261°
2026-05-04 14:22 38.31750 25.80628 20000 ft 355 kts 261°
2026-05-04 14:22 38.31350 25.77484 20000 ft 355 kts 261°
2026-05-04 14:22 38.31084 25.75401 20000 ft 355 kts 261°
2026-05-04 14:22 38.30693 25.72331 20000 ft 355 kts 261°
2026-05-04 14:23 38.29888 25.66025 20000 ft 355 kts 261°
2026-05-04 14:23 38.29489 25.62903 20000 ft 355 kts 261°
2026-05-04 14:23 38.29087 25.59755 20000 ft 355 kts 261°
2026-05-04 14:24 38.28691 25.56657 20000 ft 355 kts 261°
2026-05-04 14:24 38.28294 25.53562 20000 ft 355 kts 261°
2026-05-04 14:24 38.27857 25.50449 20000 ft 355 kts 260°
2026-05-04 14:24 38.27398 25.47383 20000 ft 355 kts 259°
2026-05-04 14:25 38.26919 25.44283 20000 ft 355 kts 259°
2026-05-04 14:25 38.25953 25.38137 20000 ft 355 kts 259°
2026-05-04 14:25 38.25462 25.35033 20000 ft 355 kts 259°
2026-05-04 14:26 38.24976 25.31966 20000 ft 355 kts 259°
2026-05-04 14:26 38.24548 25.29269 20000 ft 355 kts 259°
2026-05-04 14:26 38.24058 25.26182 20000 ft 355 kts 259°
2026-05-04 14:26 38.23562 25.23059 20000 ft 355 kts 259°
2026-05-04 14:27 38.23072 25.19976 20000 ft 355 kts 259°
2026-05-04 14:27 38.22585 25.16914 20000 ft 355 kts 259°
2026-05-04 14:27 38.22094 25.13829 20000 ft 355 kts 259°
2026-05-04 14:27 38.21611 25.10794 20000 ft 355 kts 259°
2026-05-04 14:28 38.21112 25.07658 20000 ft 355 kts 259°
2026-05-04 14:28 38.20608 25.04492 20000 ft 355 kts 259°
2026-05-04 14:28 38.20120 25.01430 20000 ft 355 kts 259°
2026-05-04 14:28 38.19624 24.98319 20000 ft 355 kts 259°
2026-05-04 14:29 38.18567 24.92165 19998 ft 355 kts 255°
2026-05-04 14:29 38.16762 24.86342 20002 ft 357 kts 247°
2026-05-04 14:30 38.15700 24.83438 19724 ft 361 kts 246°
2026-05-04 14:30 38.14612 24.80566 19352 ft 358 kts 246°
2026-05-04 14:30 38.12541 24.75227 18245 ft 332 kts 245°
2026-05-04 14:31 38.11527 24.72640 17650 ft 329 kts 245°
2026-05-04 14:31 38.09494 24.67469 16446 ft 323 kts 245°
2026-05-04 14:32 38.08891 24.65937 16085 ft 322 kts 245°
2026-05-04 14:32 38.08012 24.63703 15554 ft 319 kts 245°
2026-05-04 14:32 38.07020 24.61184 14951 ft 316 kts 245°
2026-05-04 14:32 38.06042 24.58699 14350 ft 313 kts 245°
2026-05-04 14:33 38.05062 24.56214 13744 ft 310 kts 245°
2026-05-04 14:33 38.04108 24.53792 13147 ft 308 kts 245°
2026-05-04 14:33 38.03149 24.51359 12542 ft 305 kts 245°
2026-05-04 14:33 38.02205 24.48964 11941 ft 302 kts 245°
2026-05-04 14:34 38.01260 24.46568 11334 ft 299 kts 245°
2026-05-04 14:34 38.00333 24.44216 10732 ft 296 kts 245°
2026-05-04 14:34 37.99411 24.41879 10129 ft 294 kts 245°
2026-05-04 14:34 37.98499 24.39568 9527 ft 291 kts 245°
2026-05-04 14:35 37.97602 24.37296 8929 ft 288 kts 245°
2026-05-04 14:35 37.96672 24.35017 8318 ft 286 kts 242°
2026-05-04 14:35 37.95609 24.32906 7918 ft 279 kts 238°
2026-05-04 14:35 37.94464 24.30876 7873 ft 279 kts 236°
2026-05-04 14:36 37.93694 24.29556 7861 ft 279 kts 236°
2026-05-04 14:36 37.92529 24.27589 7855 ft 279 kts 235°
2026-05-04 14:36 37.91337 24.25590 7532 ft 290 kts 235°
2026-05-04 14:36 37.90097 24.23512 7118 ft 285 kts 235°
2026-05-04 14:37 37.88908 24.21528 6710 ft 274 kts 235°
2026-05-04 14:37 37.87759 24.19618 6303 ft 266 kts 235°
2026-05-04 14:37 37.86644 24.17776 5898 ft 260 kts 235°
2026-05-04 14:37 37.85543 24.15970 5494 ft 256 kts 235°
2026-05-04 14:38 37.84457 24.14183 5083 ft 252 kts 235°
2026-05-04 14:38 37.83398 24.12429 4694 ft 249 kts 234°
2026-05-04 14:38 37.82361 24.10680 4294 ft 248 kts 234°
2026-05-04 14:38 37.81353 24.08942 4070 ft 240 kts 234°
2026-05-04 14:39 37.80362 24.07208 3928 ft 239 kts 235°
2026-05-04 14:39 37.79401 24.05509 3871 ft 238 kts 235°
2026-05-04 14:39 37.78430 24.03783 3857 ft 238 kts 235°
2026-05-04 14:40 37.76507 24.00361 3852 ft 236 kts 235°
2026-05-04 14:40 37.75482 23.98725 3830 ft 239 kts 225°
2026-05-04 14:40 37.74119 23.97506 3879 ft 242 kts 214°
2026-05-04 14:40 37.72888 23.96060 3858 ft 242 kts 231°
2026-05-04 14:41 37.71979 23.94302 3856 ft 235 kts 240°
2026-05-04 14:41 37.71261 23.92489 3840 ft 224 kts 248°
2026-05-04 14:41 37.70843 23.88622 3437 ft 224 kts 271°
2026-05-04 14:42 37.71054 23.84826 2917 ft 208 kts 275°
2026-05-04 14:42 37.71181 23.83014 2864 ft 205 kts 275°
2026-05-04 14:42 37.71252 23.81227 2853 ft 205 kts 270°
2026-05-04 14:43 37.71182 23.79424 2857 ft 206 kts 266°
2026-05-04 14:43 37.71215 23.77607 2821 ft 207 kts 282°
2026-05-04 14:43 37.71789 23.75957 2882 ft 209 kts 299°
2026-05-04 14:43 37.72831 23.74664 2848 ft 209 kts 329°
2026-05-04 14:44 37.74239 23.74217 2854 ft 205 kts 359°
2026-05-04 14:44 37.75518 23.74716 2836 ft 187 kts 31°
2026-05-04 14:44 37.76331 23.75931 2865 ft 175 kts 59°
2026-05-04 14:44 37.76847 23.77298 2857 ft 171 kts 66°
2026-05-04 14:45 37.77313 23.78663 2839 ft 165 kts 66°
2026-05-04 14:45 37.77803 23.79958 2847 ft 161 kts 62°
2026-05-04 14:45 37.78420 23.81127 2847 ft 159 kts 52°
2026-05-04 14:45 37.79204 23.82175 2852 ft 159 kts 43°
2026-05-04 14:46 37.80072 23.83056 2854 ft 159 kts 37°
2026-05-04 14:46 37.80984 23.83840 2853 ft 158 kts 33°
2026-05-04 14:46 37.81920 23.84601 2850 ft 158 kts 33°
2026-05-04 14:46 37.82892 23.85410 2577 ft 168 kts 34°
2026-05-04 14:47 37.83829 23.86238 2371 ft 160 kts 36°
2026-05-04 14:47 37.84714 23.87060 2184 ft 158 kts 37°
2026-05-04 14:47 37.85326 23.87642 2054 ft 157 kts 37°
2026-05-04 14:47 37.86182 23.88461 1869 ft 156 kts 37°
2026-05-04 14:48 37.87053 23.89291 1674 ft 156 kts 37°
2026-05-04 14:48 37.87923 23.90117 1473 ft 156 kts 37°
2026-05-04 14:48 37.88796 23.90946 1269 ft 155 kts 37°
2026-05-04 14:48 37.89661 23.91767 1059 ft 155 kts 37°
2026-05-04 14:49 37.90524 23.92586 852 ft 154 kts 37°
2026-05-04 14:49 37.91379 23.93399 644 ft 153 kts 37°
2026-05-04 14:49 37.92238 23.94215 446 ft 152 kts 37°
2026-05-04 14:49 37.93098 23.95033 318 ft 132 kts 37°
2026-05-04 14:50 37.93581 23.95492 317 ft 18 kts 37°
2026-05-04 14:50 37.93642 23.95550 317 ft 29 kts 37°
2026-05-04 14:50 37.93793 23.95609 317 ft 18 kts 296°
2026-05-04 14:50 37.93857 23.95440 317 ft 0 kts 297°
2026-05-04 14:51 37.93857 23.95439 317 ft 0 kts 297°